[Iaude] MPEC B22: 2024 BB [a=1.86,e=0.50,i=25.1,H=26.1]
    mpec at marsden.cfa.harvard.edu 
    mpec at marsden.cfa.harvard.edu
       
    Wed Jan 17 19:38:22 EST 2024
    
    
  
M.P.E.C. 2024-B22                              Issued 2024 January 18, 00:36 UT
     The Minor Planet Electronic Circulars contain information on unusual
         minor planets, routine data on comets and natural satellites,
         and occasional editorial announcements.  They are published
    on behalf of Division F of the International Astronomical Union by the
          Minor Planet Center, Smithsonian Astrophysical Observatory,
                          Cambridge, MA 02138, U.S.A.
			  
             Prepared using the Tamkin Foundation Computer Network
                              MPC at CFA.HARVARD.EDU
            URL https://www.minorplanetcenter.net/    ISSN 1523-6714
                                    2024 BB                                     
Observations:
     K24B00B 1C2024 01 16.40404 08 52 10.78 +19 28 08.3          18.6 GVEB022703
     K24B00B 1C2024 01 16.40609 08 52 14.61 +19 29 59.2          20.1 GVEB022703
     K24B00B* C2024 01 16.47785208 54 38.855+20 34 52.79         19.0 GVEB022U68
     K24B00B  C2024 01 16.48119408 54 45.728+20 37 56.05         19.0 GVEB022U68
     K24B00B  C2024 01 16.49914008 55 22.145+20 54 24.02         19.1 GVEB022U68
     K24B00B  C2024 01 16.50248108 55 29.023+20 57 28.08         19.1 GVEB022U68
     K24B00B hC2024 01 16.89045309 11 01.579+27 09 59.54         18.8 GVEB022J95
     K24B00B hC2024 01 16.90422109 11 36.514+27 23 51.18         19.6 GVEB022J95
     K24B00B hC2024 01 16.91614409 12 06.898+27 35 53.45         18.8 GVEB022J95
     K24B00B 1C2024 01 16.93316 09 12 47.96 +27 53 20.0          20.2 VXEB022033
     K24B00B 1C2024 01 16.93408 09 12 50.34 +27 54 15.5          19.6 VXEB022033
     K24B00B 1C2024 01 16.93451 09 12 51.45 +27 54 42.4          19.4 VXEB022033
     K24B00B 1C2024 01 17.13316 09 21 42.47 +31 16 41.4          19.0 VXEB022033
     K24B00B 1C2024 01 17.13402 09 21 44.95 +31 17 33.8          19.0 VXEB022033
     K24B00B  C2024 01 17.26336809 28 38.137+33 31 59.17         19.3 GVEB022654
     K24B00B  C2024 01 17.26497909 28 43.004+33 33 40.13         19.3 GVEB022654
     K24B00B KC2024 01 18.00228810 14 59.215+45 59 23.64         19.4 GVEB022J95
     K24B00B KC2024 01 18.00520210 15 12.125+46 02 11.47         19.8 GVEB022J95
     K24B00B KC2024 01 18.00917210 15 29.758+46 06 01.01         19.6 GVEB022J95
     K24B00B KC2024 01 18.01215110 15 42.991+46 08 52.12         19.2 GVEB022J95
Observer details:
033 Karl Schwarzschild Observatory, Tautenburg.  Observers S. Melnikov, C.
    Hogner, F. Ludwig, M. Hartmann, B. Stecklum.  Measurer B. Stecklum.
    1.34-m f/3 Schmidt + CCD.
654 Table Mountain Observatory, Wrightwood-PHMC.  Observers N. Evans, P. Choi,
    N. Saini, C. Zhai, R. Trahan, M. Shao.  1.0-m Reflector + CCD.
703 Catalina Sky Survey.  Observers T. Beuden, D. Rankin.  Measurers B. Gray,
    D. Rankin, F. C. Shelly.  0.68-m Schmidt + 10K CCD.
J95 Great Shefford.  Observer P. Birtwhistle.  0.41-m f/6.3 Schmidt-Cassegrain
    + CCD.
U68 JPL SynTrack Robotic Telescope, Auberry.  Observers N. Saini, C. Zhai, R.
    Trahan, M. Zhan, M. Shao.  0.28-m Reflector + CCD.
Orbital elements:
2024 BB                                                  Earth MOID = 0.0246 AU
Epoch 2023 Sept. 13.0 TT = JDT 2460200.5                MPC                     
M 299.05122              (2000.0)            P               Q                  
n   0.38870457     Peri.   39.76969     -0.85550464     -0.34911578             
a   1.8594719      Node   115.73626     +0.29646977     -0.93574156             
e   0.4970294      Incl.   25.11970     +0.42452030     -0.05005906             
P   2.54           H   26.18          G   0.15           U   8                  
Residuals in seconds of arc
240116 703  1.2+  0.3-    240116 J95  0.2-  0.5-    240117 654  0.1+  0.2+
240116 703  0.6-  0.2-    240116 J95  0.1-  0.2+    240117 654  0.1+  0.1+
240116 U68  1.2-  0.3+    240116 033  0.7-  1.1-    240118 J95  0.1+  0.2+
240116 U68  0.7+  0.1+    240116 033  0.3-  1.3-    240118 J95  0.0   0.2-
240116 U68  0.1-  0.5+    240116 033  0.1-  0.5-    240118 J95  0.0   0.2+
240116 U68  0.5+  0.3+    240117 033  0.2+  0.1+    240118 J95  0.1-  0.3-
240116 J95  0.3-  0.2-    240117 033  0.8+  0.2-
Ephemeris:
2024 BB                  a,e,i = 1.86, 0.50, 25                  q = 0.9353
Date    TT    R. A. (2000) Decl.     Delta      r    Elong.  Phase     V
2023 12 19    06 56 09.9 -29 27 28   0.2972  1.1778   124.4    43.6    25.6
...
2024 01 03    07 09 58.5 -27 30 54   0.1480  1.0832   129.4    44.6    23.9
...
2024 01 11    07 34 30.8 -18 06 39   0.07139 1.0391   139.9    37.6    22.0
...
2024 01 17    09 15 35.6 +29 02 14   0.02786 1.0099   159.5    20.0    19.4
2024 01 18    10 14 33.4 +45 57 28   0.02714 1.0054   142.2    36.9    19.9
2024 01 19    11 48 48.7 +58 44 11   0.02982 1.0010   124.4    54.2    20.5
...
2024 01 25    17 25 23.1 +53 31 00   0.07615 0.9773    82.4    93.1    23.8
...
2024 02 02    18 11 15.3 +45 39 22   0.1503  0.9532    73.3    98.0    25.5
...
2024 02 17    18 33 32.1 +40 34 05   0.2851  0.9350    71.0    92.2    26.6
A. U. Tomatic                (C) Copyright 2024 MPC           M.P.E.C. 2024-B22
    
    
More information about the Iaude
mailing list